This is the latest recevied weather packets stored in our database for station/object KB4NWJ. If no packets are shown the sender has not sent any weather packets the latest 10 day(s).
| Time | Temp. | Humidity | Pressure | Rain* | Wind** | Luminosity | Snow |
|---|---|---|---|---|---|---|---|
| 1778074370 | 20.56° C | 86% | 1016.2 hPa | 0 mm | - | 151 W/m² | - |
| 1778074066 | 20.56° C | 88% | 1016.1 hPa | 0 mm | - | 152 W/m² | - |
| 1778073764 | 20° C | 88% | 1016.1 hPa | 0 mm | - | 162 W/m² | - |
| 1778073462 | 20° C | 89% | 1016 hPa | 0 mm | - | 148 W/m² | - |
| 1778073157 | 20° C | 90% | 1015.8 hPa | 0 mm | - | 134 W/m² | - |
| 1778072854 | 20° C | 91% | 1015.8 hPa | 0 mm | - | 117 W/m² | - |
| 1778072551 | 20° C | 90% | 1015.8 hPa | 0 mm | - | 98 W/m² | - |
| 1778072249 | 20° C | 91% | 1015.8 hPa | 0 mm | - | 97 W/m² | - |
| 1778071947 | 20° C | 91% | 1015.7 hPa | 0 mm | - | 101 W/m² | - |
| 1778071645 | 20° C | 90% | 1015.6 hPa | 0 mm | - | 138 W/m² | - |
| 1778071343 | 20° C | 91% | 1015.3 hPa | 0 mm | - | 157 W/m² | - |
| 1778071040 | 20° C | 92% | 1015.4 hPa | 0 mm | - | 171 W/m² | - |
| 1778070739 | 19.44° C | 93% | 1015.5 hPa | 0 mm | - | 131 W/m² | - |
| 1778070435 | 18.89° C | 94% | 1015.7 hPa | 0 mm | - | 94 W/m² | - |
| 1778070132 | 18.89° C | 94% | 1015.4 hPa | 0 mm | - | 83 W/m² | - |
| 1778069830 | 18.89° C | 95% | 1015.6 hPa | 0 mm | - | 71 W/m² | - |
| 1778069526 | 18.89° C | 95% | 1015.4 hPa | 0 mm | - | 49 W/m² | - |
| 1778069224 | 18.89° C | 95% | 1015.5 hPa | 0 mm | - | 46 W/m² | - |
| 1778068921 | 18.89° C | 95% | 1015.6 hPa | 0 mm | - | 41 W/m² | - |
| 1778068620 | 18.89° C | 95% | 1015.4 hPa | 0 mm | - | 42 W/m² | - |
| 1778068317 | 18.89° C | 96% | 1015.3 hPa | 0 mm | - | 41 W/m² | - |
| 1778068014 | 18.89° C | 96% | 1015.2 hPa | 0 mm | - | 30 W/m² | - |
| 1778067712 | 18.89° C | 96% | 1015.5 hPa | 0 mm | - | 29 W/m² | - |
| 1778067411 | 18.89° C | 96% | 1015.5 hPa | 0 mm | - | 29 W/m² | - |
| 1778067108 | 18.89° C | 96% | 1015.2 hPa | 0 mm | - | 34 W/m² | - |
* Rain latest hour (hover to see other rain measurements)
** Current wind speed in m/s (hover to see current wind gust speed)